Minot, ND

6:28 AM CDT on July 25, 2017 (GMT -0500)
Minot International

Weather History for KMOT - May, 2012

Change the Weather History Date:

Monday, May 28, 2012

  Actual Average Record
Temperature  
Mean Temperature 48 °F 59 °F  
Max Temperature 55 °F 70 °F 99 °F (1919)
Min Temperature 41 °F 47 °F 20 °F (1947)
Degree Days  
Heating Degree Days 18    
Cooling Degree Days 0 1  
Month to date cooling degree days 4 6  
Year to date cooling degree days 5 7  
Moisture  
Dew Point 42 °F    
Average Humidity 84    
Maximum Humidity 100    
Minimum Humidity 68    
Precipitation  
Precipitation 0.02 in 0.09 in 2.69 in (1953)
Month to date precipitation 1.79 2.20  
Year to date precipitation 5.56 5.09  
Sea Level Pressure  
Sea Level Pressure 29.66 in    
Wind  
Wind Speed 12 mph (WSW)    
Max Wind Speed 22 mph    
Max Gust Speed 26 mph    
Visibility 9 miles    
Events Fog , Rain    
T = Trace of Precipitation, MM = Missing Value Source: NWS Daily Summary

Daily Weather History Graph

Daily Weather History Graph

Search for Another Location

Airport or City:

Trip Planner

Search our weather history database for the weather conditions in past years. The results will help you decide how hot, cold, wet, or windy it might be!

Date:

Astronomy

May. 28, 2012 Rise Set
Actual Time 5:51 AM CDT 9:34 PM CDT
Civil Twilight 5:11 AM CDT 10:14 PM CDT
Nautical Twilight 4:17 AM CDT 11:08 PM CDT
Astronomical Twilight 3:01 AM CDT 12:26 AM CDT
Moon 1:27 PM CDT (5/28) 1:50 AM CDT (5/28)
Length of Visible Light 17h 02m
Length of Day
15h 43m
Waxing Crescent, 49% of the Moon is Illuminated
May 28
Waxing Crescent
May 28
First Quarter
Jun 4
Full
Jun 11
Last Quarter
Jun 19
New

Hourly Weather History & Observations

Time (CDT) Temp. Windchill Dew Point Humidity Pressure Visibility Wind Dir Wind Speed Gust Speed Precip Events Conditions
12:54 AM 45.0 °F 43.5 °F 43.0 °F 93% 29.67 in 10.0 mi SSE 3.5 mph - N/A   Clear
1:54 AM 43.0 °F 41.3 °F 42.1 °F 97% 29.67 in 2.5 mi SSE 3.5 mph - N/A   Clear
1:56 AM 42.8 °F 40.1 °F 41.0 °F 93% 29.64 in 1.5 mi SSE 4.6 mph - N/A   Partly Cloudy
2:01 AM 42.8 °F 40.1 °F 42.8 °F 100% 29.64 in 0.2 mi South 4.6 mph - N/A Fog Fog
2:20 AM 42.8 °F 38.0 °F 41.0 °F 93% 29.64 in 0.8 mi SW 8.1 mph - N/A   Mist
2:27 AM 44.6 °F 39.7 °F 42.8 °F 93% 29.64 in 1.2 mi SW 9.2 mph - N/A   Partly Cloudy
2:30 AM 44.6 °F 39.7 °F 42.8 °F 93% 29.64 in 5.0 mi SW 9.2 mph - N/A   Clear
2:54 AM 44.1 °F 39.5 °F 42.1 °F 93% 29.67 in 10.0 mi SW 8.1 mph - N/A   Clear
3:54 AM 44.1 °F 38.6 °F 39.9 °F 85% 29.67 in 10.0 mi SW 10.4 mph - N/A   Clear
4:54 AM 44.1 °F 38.1 °F 39.0 °F 82% 29.67 in 10.0 mi WSW 11.5 mph - N/A   Clear
5:54 AM 41.0 °F 37.1 °F 37.0 °F 86% 29.67 in 10.0 mi WSW 5.8 mph - N/A   Clear
6:54 AM 42.1 °F 39.2 °F 37.9 °F 85% 29.66 in 10.0 mi SW 4.6 mph - N/A   Clear
7:54 AM 46.0 °F 40.2 °F 37.9 °F 73% 29.66 in 10.0 mi WSW 12.7 mph 20.7 mph N/A   Clear
8:15 AM 46.4 °F 40.4 °F 37.4 °F 71% 29.65 in 10.0 mi WSW 13.8 mph 21.9 mph N/A   Mostly Cloudy
8:54 AM 46.0 °F 41.4 °F 37.0 °F 71% 29.67 in 10.0 mi SW 9.2 mph - N/A   Overcast
9:54 AM 46.9 °F - 37.9 °F 71% 29.65 in 10.0 mi WSW 11.5 mph 19.6 mph N/A   Overcast
10:54 AM 46.0 °F 41.4 °F 37.9 °F 73% 29.66 in 10.0 mi SW 9.2 mph - N/A   Overcast
11:54 AM 46.9 °F - 39.0 °F 74% 29.65 in 10.0 mi SW 15.0 mph - 0.00 in Rain Light Rain
12:54 PM 48.0 °F - 39.9 °F 74% 29.65 in 10.0 mi SW 13.8 mph - 0.00 in   Overcast
1:54 PM 50.0 °F - 41.0 °F 71% 29.64 in 10.0 mi SW 19.6 mph 23.0 mph 0.01 in   Overcast
2:54 PM 48.9 °F - 41.0 °F 74% 29.64 in 10.0 mi SW 15.0 mph 21.9 mph N/A   Overcast
3:54 PM 50.0 °F - 42.1 °F 74% 29.63 in 10.0 mi SW 8.1 mph - N/A   Overcast
4:09 PM 51.8 °F - 42.8 °F 71% 29.60 in 10.0 mi SW 15.0 mph 20.7 mph N/A   Overcast
4:54 PM 53.1 °F - 44.1 °F 71% 29.63 in 10.0 mi WSW 11.5 mph - 0.00 in   Overcast
5:16 PM 53.6 °F - 44.6 °F 72% 29.61 in 10.0 mi WSW 13.8 mph 19.6 mph N/A   Overcast
5:35 PM 53.6 °F - 42.8 °F 67% 29.61 in 10.0 mi WSW 13.8 mph 23.0 mph N/A   Mostly Cloudy
5:54 PM 52.0 °F - 41.0 °F 66% 29.63 in 10.0 mi West 17.3 mph 25.3 mph N/A   Mostly Cloudy
6:54 PM 51.1 °F - 43.0 °F 74% 29.64 in 10.0 mi WNW 13.8 mph 21.9 mph N/A   Overcast
7:02 PM 50.0 °F - 44.6 °F 82% 29.62 in 10.0 mi WNW 15.0 mph - N/A   Overcast
7:54 PM 52.0 °F - 44.1 °F 74% 29.67 in 10.0 mi WNW 17.3 mph 20.7 mph 0.00 in   Mostly Cloudy
8:54 PM 51.1 °F - 45.0 °F 80% 29.69 in 10.0 mi West 9.2 mph - 0.00 in   Overcast
9:45 PM 51.8 °F - 46.4 °F 82% 29.68 in 10.0 mi West 15.0 mph - N/A   Overcast
9:54 PM 51.1 °F - 46.0 °F 83% 29.70 in 10.0 mi West 13.8 mph 21.9 mph N/A   Overcast
10:36 PM 50.0 °F - 46.4 °F 87% 29.70 in 10.0 mi WNW 13.8 mph - 0.01 in   Overcast
10:54 PM 50.0 °F - 46.9 °F 89% 29.74 in 10.0 mi NW 15.0 mph - 0.01 in   Overcast
11:22 PM 50.0 °F - 46.4 °F 87% 29.72 in 10.0 mi NW 12.7 mph - N/A   Overcast
11:47 PM 48.2 °F - 44.6 °F 87% 29.74 in 10.0 mi NNW 19.6 mph 26.5 mph N/A   Overcast
11:54 PM 48.0 °F - 45.0 °F 89% 29.77 in 10.0 mi NNW 18.4 mph 26.5 mph N/A   Overcast